Location: Hackberry
(29.5783°N, 96.8797°W)
Time: 02:05:13
(UTC+00:00)

Explorer 11/Cluster Stage 4 - Pass Details

Date: 15 November 2024
Orbit: 464 x 1202 km, 28.8° (Epoch: 03 December)

Event Time Altitude Azimuth Distance (km) Brightness Sun altitude
Exits shadow 10:51:43 69° 121° (ESE) 669 6.2 -26.2°
Drops below altitude 10° 10:55:30 10° 89° (E) 1,837 9.5 -25.4°
Sets 10:57:34 0° 87° (E) 2,653 10.6 -24.9°
